EW7469 Weather Reports


Display with metric or nautical units.
time (UTC)temp
F
wind
direction
speed
MPH
gust
MPH
rain 1hr
in
rain 24hr
in
rain mn
in
humidity
%
barometer
mb
20260510022935 76 352 1.0 3.0 0.01 0.01 0.01 85 1013.2
20260510022449 77 352 1.0 4.0 0.01 0.01 0.01 85 1013.2
20260510021933 77 338 2.0 4.0 0.01 0.01 0.01 84 1013.2
20260510021437 77 330 1.0 3.0 0.01 0.01 0.01 84 1013.6
20260510020933 77 323 0.0 4.0 0.00 0.00 0.00 83 1013.6
20260510020456 77 323 2.0 4.0 0.00 0.00 0.00 83 1013.6
20260510015939 77 356 0.0 3.0 0.00 0.00 0.00 82 1013.4
20260510015442 77 342 1.0 3.0 0.00 0.00 0.00 81 1013.4
20260510014947 78 356 0.0 4.0 0.00 0.00 0.00 79 1013.4
20260510014432 78 356 1.0 4.0 0.00 0.00 0.00 79 1013.4
20260510013938 79 331 1.0 4.0 0.00 0.00 0.00 78 1013.4
20260510013439 79 324 1.0 6.0 0.00 0.00 0.00 77 1013.4
20260510012945 79 350 2.0 10.0 0.00 0.00 0.00 75 1013.2
20260510012513 80 281 4.0 10.0 0.00 0.00 0.00 73 1013.2
20260510011936 81 305 4.0 6.0 0.00 0.00 0.00 70 1013.2
20260510011433 81 297 3.0 5.0 0.00 0.00 0.00 67 1012.7
20260510010935 82 263 3.0 6.0 0.00 0.00 0.00 66 1012.7
20260510010439 82 273 2.0 5.0 0.00 0.00 0.00 64 1012.7
20260510005942 82 359 2.0 11.0 0.00 0.00 0.00 64 1012.4
20260510005447 82 359 2.0 11.0 0.00 0.00 0.00 62 1012.4
20260510004933 83 341 2.0 6.0 0.00 0.00 0.00 62 1012.4
20260510004457 83 343 2.0 14.0 0.00 0.00 0.00 61 1012.1
20260510003933 83 333 7.0 14.0 0.00 0.00 0.00 61 1012.1
20260510003435 84 339 5.0 11.0 0.00 0.00 0.00 62 1012.1
20260510003009 84 311 2.0 4.0 0.00 0.00 0.00 66 1011.7
20260510002434 83 340 0.0 10.0 0.00 0.00 0.00 67 1011.7
20260510001939 83 301 5.0 10.0 0.00 0.00 0.00 67 1011.7
20260510001454 83 264 2.0 7.0 0.00 0.00 0.00 65 1011.1
20260510000936 83 157 3.0 7.0 0.00 0.00 0.00 66 1011.1
20260510000440 83 182 2.0 6.0 0.00 0.00 0.00 67 1011.1
20260509235944 83 192 2.0 5.0 0.00 0.00 0.00 68 1010.7
20260509235440 84 179 0.0 7.0 0.00 0.00 0.00 69 1010.7
20260509234957 84 165 1.0 9.0 0.00 0.00 0.00 69 1010.7
20260509234438 84 153 2.0 9.0 0.00 0.00 0.00 69 1010.7
20260509233936 84 146 2.0 9.0 0.00 0.00 0.00 68 1010.7
20260509233455 84 89 1.0 6.0 0.00 0.00 0.00 68 1010.7
20260509232951 84 127 1.0 7.0 0.00 0.00 0.00 68 1010.5
20260509232434 84 126 2.0 7.0 0.00 0.00 0.00 68 1010.5
20260509231958 85 124 2.0 7.0 0.00 0.00 0.00 67 1010.5
20260509231441 85 161 3.0 7.0 0.00 0.00 0.00 66 1010.6
20260509231003 85 164 3.0 10.0 0.00 0.00 0.00 65 1010.6
20260509230450 86 136 2.0 11.0 0.00 0.00 0.00 64 1010.6
20260509225932 86 205 5.0 11.0 0.00 0.00 0.00 63 1010.6
20260509225435 86 136 2.0 9.0 0.00 0.00 0.00 62 1010.6
20260509224938 86 158 3.0 9.0 0.00 0.00 0.00 62 1010.6
20260509224435 86 187 2.0 9.0 0.00 0.00 0.00 63 1010.6
20260509223953 87 186 4.0 11.0 0.00 0.00 0.00 61 1010.6
20260509223434 87 198 3.0 11.0 0.00 0.00 0.00 61 1010.6
20260509222939 88 211 2.0 8.0 0.00 0.00 0.00 62 1010.6
20260509222444 88 127 3.0 8.0 0.00 0.00 0.00 61 1010.6
20260509221947 88 142 1.0 7.0 0.00 0.00 0.00 61 1010.6
20260509221432 88 153 3.0 8.0 0.00 0.00 0.00 60 1010.6
20260509220938 89 162 4.0 8.0 0.00 0.00 0.00 59 1010.6
20260509220501 90 106 2.0 8.0 0.00 0.00 0.00 59 1010.6
20260509215935 90 197 2.0 12.0 0.00 0.00 0.00 59 1010.6
20260509215438 90 80 3.0 12.0 0.00 0.00 0.00 58 1010.6
20260509214936 90 84 2.0 11.0 0.00 0.00 0.00 57 1010.6
20260509214450 90 96 3.0 11.0 0.00 0.00 0.00 57 1010.6
20260509213932 90 123 2.0 12.0 0.00 0.00 0.00 57 1010.6
20260509213436 91 131 3.0 12.0 0.00 0.00 0.00 57 1010.6
20260509212939 91 157 4.0 12.0 0.00 0.00 0.00 56 1010.6
20260509212440 91 98 4.0 9.0 0.00 0.00 0.00 55 1010.6
20260509211934 91 188 1.0 10.0 0.00 0.00 0.00 56 1010.6
20260509211437 91 75 3.0 10.0 0.00 0.00 0.00 54 1010.6
20260509210940 92 141 4.0 7.0 0.00 0.00 0.00 53 1010.6
20260509210444 92 162 0.0 7.0 0.00 0.00 0.00 55 1010.6
20260509205947 91 95 3.0 10.0 0.00 0.00 0.00 55 1010.6
20260509205508 92 114 4.0 10.0 0.00 0.00 0.00 53 1010.6
20260509204953 93 167 1.0 11.0 0.00 0.00 0.00 53 1010.6
20260509204437 93 77 4.0 11.0 0.00 0.00 0.00 52 1010.7
20260509203932 93 96 2.0 10.0 0.00 0.00 0.00 50 1010.7
20260509203435 93 105 1.0 6.0 0.00 0.00 0.00 50 1010.7
20260509202954 93 195 2.0 14.0 0.00 0.00 0.00 49 1010.9
20260509202437 93 113 4.0 14.0 0.00 0.00 0.00 49 1010.9
20260509201942 93 163 3.0 8.0 0.00 0.00 0.00 48 1010.9
20260509201506 94 62 2.0 9.0 0.00 0.00 0.00 47 1011.0
20260509200929 94 110 3.0 10.0 0.00 0.00 0.00 48 1011.0
20260509200453 93 124 6.0 10.0 0.00 0.00 0.00 47 1011.0
20260509200010 93 148 2.0 10.0 0.00 0.00 0.00 48 1011.2
20260509193936 95 176 4.0 11.0 0.00 0.00 0.00 31 1011.4
20260509193437 97 139 3.0 11.0 0.00 0.00 0.00 41 1011.4
20260509192942 97 144 2.0 11.0 0.00 0.00 0.00 26 1011.5
20260509192453 98 168 2.0 6.0 0.00 0.00 0.00 27 1011.5
20260509191949 98 193 4.0 9.0 0.00 0.00 0.00 25 1011.5
20260509191432 98 233 5.0 13.0 0.00 0.00 0.00 26 1011.7
20260509190950 99 221 6.0 13.0 0.00 0.00 0.00 25 1011.7
20260509190433 98 276 4.0 10.0 0.00 0.00 0.00 26 1011.7
20260509185937 99 177 4.0 12.0 0.00 0.00 0.00 26 1011.7
20260509185435 98 212 4.0 12.0 0.00 0.00 0.00 26 1011.7
20260509184936 99 214 5.0 9.0 0.00 0.00 0.00 27 1011.7
20260509184433 98 257 3.0 9.0 0.00 0.00 0.00 27 1011.7
20260509183937 98 226 5.0 12.0 0.00 0.00 0.00 27 1011.7
20260509183454 98 234 5.0 13.0 0.00 0.00 0.00 27 1011.7
20260509182936 99 244 7.0 16.0 0.00 0.00 0.00 27 1011.7
20260509182441 99 191 7.0 16.0 0.00 0.00 0.00 28 1011.7
20260509181933 98 255 3.0 11.0 0.00 0.00 0.00 28 1011.7
20260509181439 98 230 3.0 11.0 0.00 0.00 0.00 28 1011.8
20260509180942 97 215 5.0 15.0 0.00 0.00 0.00 28 1011.8
20260509180447 97 254 6.0 15.0 0.00 0.00 0.00 28 1011.8
20260509175933 97 220 6.0 11.0 0.00 0.00 0.00 28 1012.1
20260509175437 97 243 4.0 10.0 0.00 0.00 0.00 34 1012.1
20260509174933 97 168 6.0 15.0 0.00 0.00 0.00 28 1012.1
20260509174434 96 250 7.0 15.0 0.00 0.00 0.00 30 1012.1
20260509173959 96 207 6.0 14.0 0.00 0.00 0.00 30 1012.1
20260509173434 96 235 5.0 11.0 0.00 0.00 0.00 31 1012.1
20260509172939 96 161 5.0 13.0 0.00 0.00 0.00 32 1012.2
20260509172435 95 242 4.0 13.0 0.00 0.00 0.00 31 1012.2
20260509171936 95 218 5.0 11.0 0.00 0.00 0.00 33 1012.2
20260509171509 95 219 5.0 14.0 0.00 0.00 0.00 33 1012.2
20260509170932 95 240 4.0 14.0 0.00 0.00 0.00 33 1012.2
20260509170436 95 242 4.0 13.0 0.00 0.00 0.00 34 1012.2
20260509165932 94 237 5.0 13.0 0.00 0.00 0.00 35 1012.6
20260509165437 95 162 5.0 11.0 0.00 0.00 0.00 35 1012.6
20260509164934 95 231 4.0 11.0 0.00 0.00 0.00 36 1012.6
20260509164457 94 139 2.0 11.0 0.00 0.00 0.00 37 1012.8
20260509163934 94 202 2.0 9.0 0.00 0.00 0.00 37 1012.8
20260509163438 93 259 5.0 10.0 0.00 0.00 0.00 38 1012.8
20260509162955 93 231 4.0 13.0 0.00 0.00 0.00 40 1012.8
20260509162435 92 186 4.0 13.0 0.00 0.00 0.00 40 1012.8
20260509161956 92 255 5.0 10.0 0.00 0.00 0.00 38 1012.8
20260509161439 92 254 5.0 11.0 0.00 0.00 0.00 40 1013.1
20260509160936 91 243 3.0 14.0 0.00 0.00 0.00 40 1013.1
20260509160437 91 189 5.0 15.0 0.00 0.00 0.00 41 1013.1
20260509155933 91 216 4.0 13.0 0.00 0.00 0.00 41 1013.3
20260509155436 90 241 6.0 12.0 0.00 0.00 0.00 42 1013.3
20260509154940 90 191 4.0 12.0 0.00 0.00 0.00 41 1013.3
20260509154434 90 170 5.0 11.0 0.00 0.00 0.00 41 1013.3
20260509153938 90 207 5.0 10.0 0.00 0.00 0.00 42 1013.3
20260509153452 89 147 5.0 10.0 0.00 0.00 0.00 45 1013.3
20260509152935 89 222 3.0 12.0 0.00 0.00 0.00 46 1013.7
20260509152451 88 136 6.0 12.0 0.00 0.00 0.00 45 1013.7
20260509151936 88 229 7.0 11.0 0.00 0.00 0.00 47 1013.7
20260509151433 88 127 5.0 11.0 0.00 0.00 0.00 45 1013.6
20260509150935 87 225 4.0 11.0 0.00 0.00 0.00 50 1013.6
20260509150439 87 181 3.0 11.0 0.00 0.00 0.00 51 1013.6
20260509145934 87 179 3.0 8.0 0.00 0.00 0.00 53 1013.7
20260509145455 86 165 4.0 7.0 0.00 0.00 0.00 53 1013.7
20260509144938 86 201 4.0 7.0 0.00 0.00 0.00 55 1013.7
20260509144432 85 200 4.0 8.0 0.00 0.00 0.00 56 1013.7
20260509143934 85 238 4.0 8.0 0.00 0.00 0.00 58 1013.7
20260509143433 84 158 4.0 10.0 0.00 0.00 0.00 60 1013.7
20260509142950 84 154 4.0 10.0 0.00 0.00 0.00 61 1013.5
20260509142435 83 179 4.0 11.0 0.00 0.00 0.00 63 1013.5
20260509141939 83 143 4.0 11.0 0.00 0.00 0.00 64 1013.5
20260509141441 83 252 5.0 12.0 0.00 0.00 0.00 69 1013.4
20260509140934 82 143 6.0 12.0 0.00 0.00 0.00 70 1013.4
20260509140438 82 217 6.0 10.0 0.00 0.00 0.00 72 1013.4
20260509135934 81 210 4.0 7.0 0.00 0.00 0.00 75 1013.7
20260509135435 81 238 3.0 7.0 0.00 0.00 0.00 77 1013.7
20260509134939 81 226 4.0 8.0 0.00 0.00 0.00 78 1013.7
20260509134435 80 175 2.0 8.0 0.00 0.00 0.00 79 1013.8
20260509133932 80 218 4.0 7.0 0.00 0.00 0.00 79 1013.8
20260509133451 80 208 2.0 7.0 0.00 0.00 0.00 81 1013.8
20260509132934 79 150 3.0 7.0 0.00 0.00 0.00 83 1013.7
20260509132439 79 155 4.0 9.0 0.00 0.00 0.00 83 1013.7
20260509131937 79 188 3.0 9.0 0.00 0.00 0.00 84 1013.7
20260509131435 78 173 2.0 7.0 0.00 0.00 0.00 85 1013.5
20260509130938 78 151 5.0 7.0 0.00 0.00 0.00 86 1013.5
20260509130453 78 239 4.0 6.0 0.00 0.00 0.00 87 1013.5
20260509125935 78 169 2.0 5.0 0.00 0.00 0.00 87 1013.4
20260509125439 78 198 3.0 5.0 0.00 0.00 0.00 88 1013.4
20260509124935 77 241 2.0 5.0 0.00 0.00 0.00 89 1013.4
20260509124439 77 231 2.0 5.0 0.00 0.00 0.00 90 1013.3
20260509123948 77 215 1.0 4.0 0.00 0.00 0.00 91 1013.3
20260509123433 77 214 2.0 3.0 0.00 0.00 0.00 93 1013.3
20260509122936 77 218 1.0 5.0 0.00 0.00 0.00 94 1013.2
20260509122434 76 260 1.0 5.0 0.00 0.00 0.00 96 1013.2
20260509121938 76 247 2.0 7.0 0.00 0.00 0.00 96 1013.2
20260509121433 76 160 3.0 7.0 0.00 0.00 0.00 98 1013.2
20260509120936 76 200 2.0 6.0 0.00 0.00 0.00 100 1013.2
20260509120500 75 216 3.0 6.0 0.00 0.00 0.00 100 1013.2
20260509115945 75 254 1.0 4.0 0.00 0.00 0.00 100 1013.1
20260509115438 75 212 1.0 4.0 0.00 0.00 0.00 100 1013.1
20260509114932 75 224 1.0 4.0 0.00 0.00 0.00 100 1013.1
20260509114509 75 242 2.0 5.0 0.00 0.00 0.00 100 1012.9
20260509113944 75 205 2.0 5.0 0.00 0.00 0.00 100 1012.9
20260509113501 75 189 1.0 4.0 0.00 0.00 0.00 100 1012.9
20260509113010 75 204 0.0 4.0 0.00 0.00 0.00 100 1012.7
20260509112504 75 191 0.0 4.0 0.00 0.00 0.00 100 1012.7
20260509111938 75 185 1.0 3.0 0.00 0.00 0.00 100 1012.7
20260509111433 75 174 1.0 3.0 0.00 0.00 0.00 100 1012.7
20260509110949 75 162 1.0 3.0 0.00 0.00 0.00 100 1012.7
20260509110442 75 169 0.0 2.0 0.00 0.00 0.00 100 1012.7
20260509105939 75 169 0.0 2.0 0.00 0.00 0.00 100 1012.6
20260509105455 75 180 1.0 4.0 0.00 0.00 0.00 100 1012.6
20260509104941 75 215 2.0 4.0 0.00 0.00 0.00 100 1012.6
20260509104436 75 166 0.0 4.0 0.00 0.00 0.00 100 1012.6
20260509103932 75 152 1.0 4.0 0.00 0.00 0.00 100 1012.6
20260509103446 75 191 1.0 4.0 0.00 0.00 0.00 100 1012.6
20260509102944 75 201 0.0 3.0 0.00 0.00 0.00 100 1012.6
20260509102438 75 168 1.0 4.0 0.00 0.00 0.00 100 1012.6
20260509101945 75 124 1.0 4.0 0.00 0.00 0.00 100 1012.6
20260509101439 75 178 1.0 4.0 0.00 0.00 0.00 100 1012.7
20260509101000 75 229 1.0 4.0 0.00 0.00 0.00 100 1012.7
20260509100446 75 188 1.0 3.0 0.00 0.00 0.00 100 1012.7
20260509095944 75 204 1.0 3.0 0.00 0.00 0.00 100 1012.5
20260509095459 74 230 2.0 3.0 0.00 0.00 0.00 100 1012.5
20260509094947 74 224 1.0 3.0 0.00 0.00 0.00 100 1012.5
20260509094439 74 191 0.0 2.0 0.00 0.00 0.00 100 1012.4
20260509093936 74 299 0.0 0.0 0.00 0.00 0.00 99 1012.4
20260509093433 74 299 0.0 0.0 0.00 0.00 0.00 99 1012.4
20260509092945 74 299 0.0 0.0 0.00 0.00 0.00 99 1012.4
20260509092438 73 299 0.0 0.0 0.00 0.00 0.00 98 1012.4
20260509091935 73 299 0.0 0.0 0.00 0.00 0.00 98 1012.4
20260509091442 73 299 0.0 0.0 0.00 0.00 0.00 98 1012.5
20260509090940 73 299 0.0 0.0 0.00 0.00 0.00 97 1012.5
20260509090436 73 299 0.0 0.0 0.00 0.00 0.00 97 1012.5
20260509085942 73 299 0.0 0.0 0.00 0.00 0.00 97 1012.6
20260509085437 73 299 0.0 0.0 0.00 0.00 0.00 97 1012.6
20260509084933 73 299 0.0 0.0 0.00 0.00 0.00 97 1012.6
20260509084443 73 299 0.0 0.0 0.00 0.00 0.00 97 1012.7
20260509083936 73 299 0.0 0.0 0.00 0.00 0.00 97 1012.7
20260509083433 73 299 0.0 0.0 0.00 0.00 0.00 97 1012.7
20260509082943 73 299 0.0 0.0 0.00 0.00 0.00 97 1012.7
20260509082440 73 299 0.0 0.0 0.00 0.00 0.00 97 1012.7
20260509081933 73 299 0.0 0.0 0.00 0.00 0.00 97 1012.7
20260509081508 73 299 0.0 0.0 0.00 0.00 0.00 97 1012.8
20260509080943 73 299 0.0 0.0 0.00 0.00 0.00 96 1012.8
20260509080440 73 299 0.0 0.0 0.00 0.00 0.00 96 1012.8
20260509075937 73 299 0.0 0.0 0.00 0.00 0.00 96 1012.8
20260509075445 73 299 0.0 0.0 0.00 0.00 0.00 96 1012.8
20260509074940 73 299 0.0 0.0 0.00 0.00 0.00 95 1012.8
20260509074436 73 299 0.0 0.0 0.00 0.00 0.00 95 1012.8
20260509074004 73 299 0.0 0.0 0.00 0.00 0.00 94 1012.8
20260509073440 73 299 0.0 0.0 0.00 0.00 0.00 94 1012.8
20260509072936 73 299 0.0 0.0 0.00 0.00 0.00 94 1012.9
20260509072453 73 299 0.0 0.0 0.00 0.00 0.00 93 1012.9
20260509072006 73 299 0.0 0.0 0.00 0.00 0.00 93 1012.9
20260509071458 73 299 0.0 0.0 0.00 0.00 0.00 92 1013.0
20260509070953 73 299 0.0 0.0 0.00 0.00 0.00 92 1013.0
20260509070509 73 299 0.0 0.0 0.00 0.00 0.00 92 1013.0
20260509065942 73 299 0.0 0.0 0.00 0.00 0.00 92 1013.0
20260509065438 74 297 0.0 0.0 0.00 0.00 0.00 92 1013.0
20260509064934 74 297 0.0 0.0 0.00 0.00 0.00 92 1013.0
20260509064443 74 297 0.0 0.0 0.00 0.00 0.00 92 1013.1
20260509063938 74 297 0.0 0.0 0.00 0.00 0.00 92 1013.1
20260509063433 74 297 0.0 0.0 0.00 0.00 0.00 92 1013.1
20260509063008 74 297 0.0 0.0 0.00 0.00 0.00 92 1013.2
20260509062440 74 297 0.0 0.0 0.00 0.00 0.00 92 1013.2
20260509061954 74 297 0.0 0.0 0.00 0.00 0.00 92 1013.2
20260509061450 74 297 0.0 0.0 0.00 0.00 0.00 92 1013.3
20260509061004 74 297 0.0 0.0 0.00 0.00 0.00 92 1013.3
20260509060439 74 297 0.0 0.0 0.00 0.00 0.00 92 1013.3
20260509055946 75 297 0.0 2.0 0.00 0.00 0.00 92 1013.5
20260509055442 75 297 0.0 2.0 0.00 0.00 0.00 92 1013.5
20260509054959 75 256 0.0 4.0 0.00 0.00 0.00 92 1013.5
20260509054448 75 256 0.0 4.0 0.00 0.00 0.00 92 1013.5
20260509053943 75 266 2.0 5.0 0.00 0.00 0.00 92 1013.5
20260509053437 75 229 2.0 5.0 0.00 0.00 0.00 92 1013.5
20260509053011 75 242 2.0 5.0 0.00 0.00 0.00 92 1013.8
20260509052503 75 228 2.0 6.0 0.00 0.00 0.00 91 1013.8
20260509051937 75 212 1.0 6.0 0.00 0.00 0.00 91 1013.8
20260509051454 75 222 3.0 5.0 0.00 0.00 0.00 91 1013.8
20260509050940 76 242 2.0 5.0 0.00 0.00 0.00 90 1013.8
20260509050438 76 214 2.0 5.0 0.00 0.00 0.00 90 1013.8
20260509045933 76 290 2.0 5.0 0.00 0.00 0.00 90 1013.7
20260509045446 76 279 2.0 5.0 0.00 0.00 0.00 89 1013.7
20260509044942 76 266 1.0 4.0 0.00 0.00 0.00 89 1013.7
20260509044439 76 205 1.0 3.0 0.00 0.00 0.00 89 1013.5
20260509043949 76 233 1.0 4.0 0.00 0.00 0.00 89 1013.5
20260509043443 77 218 2.0 4.0 0.00 0.00 0.00 88 1013.5
20260509042939 77 203 2.0 4.0 0.00 0.00 0.00 88 1013.5
20260509042508 77 212 2.0 3.0 0.00 0.00 0.00 88 1013.5
20260509042003 77 215 1.0 3.0 0.00 0.00 0.00 87 1013.5
20260509041438 77 188 0.0 2.0 0.00 0.00 0.00 87 1013.4
20260509040947 77 188 1.0 2.0 0.00 0.00 0.00 87 1013.4
20260509040442 77 191 0.0 2.0 0.00 0.00 0.00 87 1013.4
20260509035940 77 188 0.0 2.0 0.00 0.00 0.00 87 1013.6
20260509035445 77 188 0.0 2.0 0.00 0.00 0.00 86 1013.6
20260509034941 77 188 1.0 3.0 0.00 0.00 0.00 86 1013.6
20260509034437 77 131 0.0 3.0 0.00 0.00 0.00 86 1013.5
20260509033933 77 139 0.0 3.0 0.00 0.00 0.00 86 1013.5
20260509033442 77 138 1.0 3.0 0.00 0.00 0.00 86 1013.5
20260509032938 77 136 0.0 3.0 0.00 0.00 0.00 86 1013.4
20260509032512 77 139 1.0 5.0 0.00 0.00 0.00 86 1013.4
20260509031946 77 162 2.0 5.0 0.00 0.00 0.00 86 1013.4
20260509031436 78 170 1.0 4.0 0.00 0.00 0.00 86 1013.6
20260509030937 78 141 1.0 4.0 0.00 0.00 0.00 86 1013.6
20260509030434 78 129 0.0 5.0 0.00 0.00 0.00 86 1013.6
20260509025930 78 185 2.0 5.0 0.00 0.00 0.00 85 1013.5
20260509025450 78 185 1.0 3.0 0.00 0.00 0.00 85 1013.5
20260509024945 78 179 0.0 2.0 0.00 0.00 0.00 85 1013.5
20260509024439 78 178 0.0 6.0 0.00 0.00 0.00 85 1013.5
20260509023951 78 203 1.0 6.0 0.00 0.00 0.00 85 1013.5
20260509023501 78 184 1.0 3.0 0.00 0.00 0.00 85 1013.5